Regional Weather Roundup
Issued by NWS Wakefield, VA

Home | Current Version | Previous Version | Text Only | Print | Product List | Glossary Off
Versions: 1 2 3 4 5 6 7 8 9 10 11 12 13 14 15 16 17 18 19 20 21 22 23 24 25 26 27 28 29 30 31 32 33 34 35 36 37 38 39 40 41 42 43 44 45 46 47 48 49 50

140
ASUS41 KAKQ 240215
RWRAKQ

REGIONAL WEATHER ROUNDUP
NATIONAL WEATHER SERVICE WAKEFIELD VA
1000 PM EDT SAT JUL 23 2016

Note: "fair" indicates few or no clouds below 12,000 feet with no
significant weather and/or obstructions to visibility. * = Denotes
station may not report precipitation (e.g., rain,snow,etc.),
thunder or fog.

VAZ042-051-052>054-056-240300-
NORTHERN VIRGINIA

CITY           SKY/WX    TMP DP  RH WIND       PRES   REMARKS
WASH NATIONAL  FAIR      91  72  53 W7        29.91R HX  98
DULLES         FAIR      77  74  90 CALM      29.92R
FORT BELVOIR   FAIR      83  75  76 NW1       29.91R
QUANTICO       MOCLDY    84  77  79 NW6       29.92R
FREDERICKSBRG* FAIR      85  78  78 CALM      29.91R HX  96
STAFFORD*      FAIR      79  76  89 CALM      29.96R
WARRENTON      MOCLDY    81  72  74 CALM      29.92R
CULPEPER*      MOCLDY    83  78  82 W3        29.94R
MANASSAS*      CLEAR     82  72  69 CALM      29.92
LEESBURG*      FAIR      86  77  74 SW5       29.93R HX  97
WINCHESTER     FAIR      84  70  61 CALM      29.95R
FRONT ROYAL*   FAIR      79  70  73 CALM      29.94R
LURAY*         MOCLDY    79  75  89 SE5       29.97R
$$

VAZ048-049-060>072-079>083-240300-
CENTRAL AND SOUTH CENTRAL VIRGINIA

CITY           SKY/WX    TMP DP  RH WIND       PRES   REMARKS
RICHMOND       FAIR      82  75  79 CALM      29.93R
CHESTERFIELD*  FAIR      82  66  57 S3        29.95R
PETERSBURG*    FAIR      80  80  99 CALM      29.95R
HANOVER        FAIR      80  73  79 CALM      29.94R
TAPPAHANNOCK*  FAIR      83  75  77 S3        29.93R
QUINTON*       FAIR      83  79  86 CALM      29.92R HX  95
CHARLOTTSVILLE FAIR      84  72  67 NW3       29.94R
GORDONSVILLE*  FAIR      79  75  87 CALM      29.93R
ORANGE*          N/A     81  77  89 CALM      29.95R
LOUISA*        FAIR      81  77  89 CALM      29.93R
BUMPASS*       FAIR      80  77  90 CALM      29.93R
FARMVILLE*     FAIR      80  74  83 CALM      29.94R
CREWE*         FAIR      78  78 100 CALM      29.95S
FORT PICKETT*  FAIR      77  77  98 S5        29.96R
CHASE CITY*    FAIR      79  78  95 CALM      29.97R
CLARKSVILLE*   FAIR      79  79 100 CALM      29.97R
SOUTH HILL*    FAIR      79  76  90 CALM      30.03R
LAWRENCEVILLE* FAIR      79  76  92 CALM      29.97R
EMPORIA*       FAIR      79  73  83 CALM      29.97R
$$

VAZ088>098-240300-
SOUTHEAST VIRGINIA

CITY           SKY/WX    TMP DP  RH WIND       PRES   REMARKS
NORFOLK        FAIR      87  73  62 SW8       29.94R
VIRGINIA BEACH FAIR      90  75  61 SW9       29.94R HX 100
NORFOLK NAVAL  FAIR      87  74  64 SW7       29.96R HX  95
WEST POINT*    FAIR      82  77  86 CALM      29.94R
SALUDA*        FAIR      83  78  85 SW5       29.93R
NEWPORT NEWS   FAIR      86  76  71 SW8       29.94R HX  96
LANGLEY AFB    FAIR      87  75  67 SE7       29.94R HX  97
FORT EUSTIS    FAIR      85  78  80 S3        29.93R HX  97
WILLIAMSBURG*  FAIR      84  79  84 CALM      29.95R HX  96
HR EXEC AP*    FAIR      77  73  88 SW5       29.97R
FRANKLIN*      FAIR      82  76  80 S5        29.96R
US460-WAKEFLD  FAIR      82  76  81 S3        29.95R
$$

VAZ020-022-025-037-045-240300-
WEST CENTRAL AND SOUTHWEST VIRGINIA

CITY           SKY/WX    TMP DP  RH WIND       PRES   REMARKS
STAUNTON*      FAIR      80  71  73 N5        30.01R
WAYNESBORO*    FAIR      82  69  64 NW3       30.01R
HOT SPRINGS VA NOT AVBL
LYNCHBURG      FAIR      76  72  87 CALM      30.00R
DANVILLE       FAIR      78  74  87 CALM      29.98R
SOUTH BOSTON*  FAIR      79  78  95 CALM      29.97R
MARTINSVILLE   FAIR      75  72  90 CALM      30.02R
ROANOKE        FAIR      86  67  52 CALM      30.01R
BLACKSBURG     FAIR      81  69  67 CALM      30.10R
DUBLIN*        FAIR      77  70  78 CALM      30.08R
MARION*        FAIR      74  70  88 CALM      30.13R
HILLSVILLE*    FAIR      77  67  72 S5        30.11R
RICHLANDS*     FAIR      78  70  77 CALM      30.12R
WISE*          FAIR      72  61  68 CALM      30.12R
ABINGDON*      FAIR      79  70  74 CALM      30.07R
$$

MDZ021>025-VAZ099-100-240300-
SOUTHERN MARYLAND AND THE DELMARVA PENINSULA

CITY           SKY/WX    TMP DP  RH WIND       PRES   REMARKS
PATUXENT RIVER CLOUDY    85  73  67 S3        29.90R
BAY BRIDGE APT PTCLDY    75  72  88 CALM      29.91S
LEONARDTOWN    CLEAR     84  72  65 SW3       29.93R
DOVER          CLEAR     77  77 100 SE2       29.89S
GEORGETOWN     CLOUDY    85  74  69 CALM      29.92R
EASTON         MOCLDY    78  76  94 CALM      29.95F
CAMBRIDGE      MOCLDY    86  75  70 NW6       29.92R HX  95
SALISBURY      PTCLDY    82  77  84 SW5       29.92R
OCEAN CITY     PTCLDY    82  77  84 S3        29.91R
WALLOPS ISLAND FAIR      81  77  88 S7        29.92R
ACCOMACK*      FAIR      82  75  78 CALM      29.93R
$$

NCZ012>017-030>032-240300-
NORTH CENTRAL AND EASTERN NORTH CAROLINA

CITY           SKY/WX    TMP DP  RH WIND       PRES   REMARKS
ROANOKE RAPIDS FAIR      81  77  89 CALM      29.96R
RALEIGH        PTCLDY    82  74  76 SW9       29.98R
ELIZABETH CITY CLEAR     83  76  79 S9        29.97R
AHOSKIE*       CLEAR     80  77  90 CALM      29.97R
EDENTON*       CLEAR     86  72  63 SW10      29.98R
CURRITUCK*     CLEAR     84  76  78 S5        29.97R
KILL DEVIL HLS CLEAR     83  75  77 SW6       29.97R
MANTEO           N/A     83  78  84 SW13      29.99R
CAPE HATTERAS  CLEAR     83  75  77 SW8       30.01R
TARBORO*       FAIR      84  76  77 S5        29.98R
GOLDSBORO      CLEAR     82  78  87 S6        29.97R
WASHINGTON     CLEAR     81  74  79 S6        29.99R
GREENVILLE     CLEAR     82  77  83 SW9       30.00R
NEW BERN       CLEAR     79  73  82 S5        30.01R
WILMINGTON     CLEAR     81  75  82 SW6       30.00R
$$

VAZ048-240300-
ELSEWHERE

CITY           SKY/WX    TMP DP  RH WIND       PRES   REMARKS
HARRISBURG PA  PTCLDY    81  73  76 CALM      29.89R
BALTIMORE      MOCLDY    77  72  84 S3        29.91R
ANNAPOLIS      PTCLDY    80  76  87 CALM      29.91R
ANDREWS AFB    FAIR      86  73  65 E5        29.92R
PHILADELPHIA   PTCLDY    81  70  69 S7        29.90R
GREENSBORO     CLEAR     83  70  64 SW6       30.00R
ROCKY MOUNT    CLEAR     81  77  88 S3        29.97R
$$

VAZ100-240300-
MARINE

STATION/POSITION TIME  TEMP    WIND        PRES    WAVE   SWELL
                       AIR SEA DIR/SP/G            HT/PER HT/PER
                 (UTC) (F)     (DEG/KT/KT) (MB)    (FT/S) (FT/S)
BRANDYWINE LGT   0100   83                   N/A
CAPE MAY NJ      0100   82 76                N/A
LEWES DE         0100   81 76                N/A
OCEAN-CITY-INLET 0106          200/  6/  8   N/A
WACHAPREAGUE VA  0100   86 88                N/A
THOMAS POINT MD  0200   84 82  120/  3/  4 1014.1R
GOOSES REEF MD   0100   88 84  260/  8/ 10 1012.6F   1
COVE POINT MD    0100   89                   N/A
SOLOMONS ISLAND  0100   88 85                N/A
BISHOPS HEAD MD  0100   89                   N/A
PINEY POINT MD   0100          250/  2/  3   N/A
POTOMAC MD       0100   87 85  230/  8/  8 1010.9S   1
CAMBRIDGE MD     0100   87 86                N/A
LEWISETTA VA     0100   89 87                N/A
RAPPAHANNOCK LGT 0100          220/  8/  9   N/A
STINGRAY PT      0100   88 85  160/  4/  4 1013.1S   0
YORK RVR RNG VA  0100   88                   N/A
YORKTOWN VA      0100   87 85                N/A
JAMESTOWN VA     0110   88     200/  6/  6   N/A
DOMINION TERM VA 0100   88                   N/A
KIPTOPEKE VA     0100      83                N/A
CHES BAY BRIDGE  0100   88 81                N/A
CAPE HENRY VA    0100   88                   N/A
WILLOUBY STN VA  0100   88                   N/A
CAPE HENRY BUOY  0112      81                N/A     2/ 8
1ST LANDING BUOY 0100   87 83  230/  6/  8 1012.8R
CAPE CHARLES BUO 0126      72                N/A     1/ 8
OFFSHORE WE BUOY 0121      81                N/A     2/ 8
64NM E OF VA BCH 0150   82 80  210/ 16/ 19 1014.0    3/ 4   2/ 8
DUCK PIER NC     0100   86 66                N/A
44100 DUCK FRF   0105      82                N/A     2/ 8
44056 DUCK FRF   0111      77                N/A     2/ 8
OREGON INLET NC  0100   85 84                N/A
HATTERAS NC      0100   83 83                N/A
DIAMOND SHLS NC  0150   84 86  220/ 12/ 16 1016.4R   3/ 8   2/ 8
CAPE LOOKOUT NC  0200   83     220/  8/  9 1015.9R
$$




USA.gov is the U.S. government's official web portal to all federal, state and local government web resources and services.